TimeEDT,TemperatureF,Dew PointF,Humidity,Sea Level PressureIn,VisibilityMPH,Wind Direction,Wind SpeedMPH,Gust SpeedMPH,PrecipitationIn,Events,Conditions,WindDirDegrees,DateUTC
12:15 AM,68.0,64.4,88,30.02,10.0,East,4.6,-,N/A,,Clear,80,2012-10-26 04:15:00
12:35 AM,68.0,64.4,88,30.02,10.0,East,3.5,-,N/A,,Clear,80,2012-10-26 04:35:00
1:35 AM,66.2,64.4,94,30.01,10.0,East,3.5,-,N/A,,Clear,90,2012-10-26 05:35:00
1:55 AM,66.2,64.4,94,30.01,10.0,East,3.5,-,N/A,,Clear,80,2012-10-26 05:55:00
2:15 AM,64.4,64.4,100,30.00,10.0,ENE,3.5,-,N/A,,Clear,70,2012-10-26 06:15:00
2:35 AM,64.4,64.4,100,30.00,10.0,ENE,3.5,-,N/A,,Clear,60,2012-10-26 06:35:00
3:15 AM,62.6,62.6,100,29.99,10.0,NE,4.6,-,N/A,,Clear,50,2012-10-26 07:15:00
3:35 AM,62.6,62.6,100,29.98,10.0,NE,5.8,-,N/A,,Clear,50,2012-10-26 07:35:00
3:55 AM,62.6,62.6,100,29.98,10.0,ENE,4.6,-,N/A,,Clear,60,2012-10-26 07:55:00
4:35 AM,62.6,62.6,100,29.98,7.0,NE,4.6,-,N/A,,Scattered Clouds,50,2012-10-26 08:35:00
4:55 AM,62.6,62.6,100,29.98,7.0,ENE,5.8,-,N/A,,Mostly Cloudy,60,2012-10-26 08:55:00
5:15 AM,62.6,62.6,100,29.98,5.0,NE,4.6,-,N/A,,Overcast,40,2012-10-26 09:15:00
5:35 AM,62.6,62.6,100,29.99,4.0,NE,8.1,-,N/A,,Overcast,50,2012-10-26 09:35:00
5:55 AM,62.6,62.6,100,29.99,2.5,NE,5.8,-,N/A,,Overcast,40,2012-10-26 09:55:00
6:35 AM,62.6,62.6,100,29.99,7.0,ENE,8.1,-,N/A,,Overcast,70,2012-10-26 10:35:00
6:55 AM,62.6,62.6,100,29.99,5.0,ENE,8.1,-,N/A,,Overcast,70,2012-10-26 10:55:00
7:15 AM,62.6,62.6,100,29.99,5.0,NE,5.8,-,N/A,,Overcast,50,2012-10-26 11:15:00
7:35 AM,62.6,62.6,100,29.99,7.0,NE,5.8,-,N/A,,Overcast,50,2012-10-26 11:35:00
7:55 AM,62.6,62.6,100,30.00,7.0,NE,3.5,-,N/A,,Overcast,50,2012-10-26 11:55:00
8:15 AM,62.6,62.6,100,30.01,7.0,NE,4.6,-,N/A,,Overcast,50,2012-10-26 12:15:00
8:35 AM,62.6,62.6,100,30.01,7.0,NE,3.5,-,N/A,,Scattered Clouds,40,2012-10-26 12:35:00
8:55 AM,62.6,62.6,100,30.01,10.0,NE,4.6,-,N/A,,Scattered Clouds,40,2012-10-26 12:55:00
9:15 AM,62.6,62.6,100,30.01,10.0,NE,5.8,-,N/A,,Clear,40,2012-10-26 13:15:00
9:35 AM,64.4,62.6,94,30.02,10.0,NE,5.8,-,N/A,,Clear,50,2012-10-26 13:35:00
9:55 AM,66.2,62.6,88,30.02,10.0,ENE,6.9,-,N/A,,Clear,70,2012-10-26 13:55:00
10:15 AM,68.0,64.4,88,30.02,10.0,NE,5.8,-,N/A,,Clear,50,2012-10-26 14:15:00
10:35 AM,69.8,64.4,83,30.01,10.0,ENE,8.1,-,N/A,,Clear,60,2012-10-26 14:35:00
10:55 AM,69.8,62.6,78,30.01,10.0,NE,5.8,-,N/A,,Clear,50,2012-10-26 14:55:00
11:15 AM,71.6,62.6,73,30.01,10.0,NNE,6.9,-,N/A,,Clear,30,2012-10-26 15:15:00
11:35 AM,71.6,62.6,73,30.01,10.0,NE,8.1,16.1,N/A,,Clear,40,2012-10-26 15:35:00
11:55 AM,73.4,62.6,69,30.00,10.0,NE,6.9,-,N/A,,Clear,40,2012-10-26 15:55:00
12:15 PM,75.2,60.8,61,29.99,10.0,NE,9.2,-,N/A,,Clear,50,2012-10-26 16:15:00
12:35 PM,77.0,59.0,54,29.99,10.0,ENE,9.2,-,N/A,,Clear,60,2012-10-26 16:35:00
12:55 PM,77.0,59.0,54,29.98,10.0,NE,10.4,16.1,N/A,,Clear,50,2012-10-26 16:55:00
1:15 PM,77.0,57.2,50,29.96,10.0,NE,11.5,18.4,N/A,,Clear,40,2012-10-26 17:15:00
1:35 PM,78.8,59.0,51,29.95,10.0,NE,9.2,16.1,N/A,,Clear,50,2012-10-26 17:35:00
1:55 PM,78.8,59.0,51,29.94,10.0,North,8.1,17.3,N/A,,Clear,10,2012-10-26 17:55:00
2:15 PM,78.8,59.0,51,29.93,10.0,NE,9.2,16.1,N/A,,Clear,40,2012-10-26 18:15:00
2:35 PM,78.8,55.4,44,29.92,10.0,NNE,11.5,21.9,N/A,,Clear,30,2012-10-26 18:35:00
2:55 PM,78.8,55.4,44,29.91,10.0,NE,10.4,20.7,N/A,,Clear,50,2012-10-26 18:55:00
3:15 PM,78.8,55.4,44,29.91,10.0,NE,8.1,18.4,N/A,,Clear,50,2012-10-26 19:15:00
3:35 PM,80.6,55.4,42,29.91,10.0,NNE,9.2,-,N/A,,Clear,30,2012-10-26 19:35:00
3:55 PM,78.8,53.6,42,29.91,10.0,ENE,10.4,16.1,N/A,,Clear,60,2012-10-26 19:55:00
4:15 PM,78.8,53.6,42,29.90,10.0,NNE,8.1,-,N/A,,Clear,30,2012-10-26 20:15:00
4:35 PM,78.8,53.6,42,29.90,10.0,NNE,5.8,-,N/A,,Clear,30,2012-10-26 20:35:00
4:55 PM,78.8,53.6,42,29.89,10.0,NE,9.2,-,N/A,,Clear,40,2012-10-26 20:55:00
5:15 PM,77.0,53.6,44,29.88,10.0,NNE,9.2,-,N/A,,Clear,30,2012-10-26 21:15:00
5:35 PM,77.0,53.6,44,29.88,10.0,NNE,6.9,-,N/A,,Clear,30,2012-10-26 21:35:00
5:55 PM,77.0,55.4,47,29.88,10.0,NNE,4.6,-,N/A,,Clear,30,2012-10-26 21:55:00
6:15 PM,75.2,55.4,50,29.88,10.0,NNE,8.1,-,N/A,,Clear,20,2012-10-26 22:15:00
6:35 PM,73.4,55.4,53,29.88,10.0,North,4.6,-,N/A,,Clear,10,2012-10-26 22:35:00
6:55 PM,73.4,55.4,53,29.89,10.0,NNE,5.8,-,N/A,,Clear,20,2012-10-26 22:55:00
7:15 PM,71.6,55.4,57,29.88,10.0,NNE,4.6,-,N/A,,Clear,20,2012-10-26 23:15:00
7:35 PM,71.6,55.4,57,29.88,10.0,NNE,3.5,-,N/A,,Clear,20,2012-10-26 23:35:00
7:55 PM,71.6,55.4,57,29.89,10.0,North,6.9,-,N/A,,Clear,10,2012-10-26 23:55:00
8:15 PM,71.6,55.4,57,29.88,10.0,NNE,5.8,-,N/A,,Clear,20,2012-10-27 00:15:00
8:35 PM,69.8,55.4,60,29.88,10.0,NNE,4.6,-,N/A,,Clear,20,2012-10-27 00:35:00
8:55 PM,69.8,55.4,60,29.88,10.0,NNE,5.8,-,N/A,,Clear,20,2012-10-27 00:55:00
9:15 PM,69.8,55.4,60,29.88,10.0,NE,5.8,-,N/A,,Clear,40,2012-10-27 01:15:00
9:35 PM,68.0,55.4,64,29.88,10.0,NNE,5.8,-,N/A,,Clear,20,2012-10-27 01:35:00
9:55 PM,68.0,55.4,64,29.88,10.0,NNE,6.9,-,N/A,,Clear,30,2012-10-27 01:55:00
10:15 PM,68.0,55.4,64,29.88,10.0,NNE,6.9,-,N/A,,Clear,30,2012-10-27 02:15:00
10:35 PM,68.0,55.4,64,29.88,10.0,NNE,6.9,-,N/A,,Clear,30,2012-10-27 02:35:00
10:55 PM,68.0,55.4,64,29.88,10.0,NE,8.1,-,N/A,,Clear,50,2012-10-27 02:55:00
11:35 PM,66.2,55.4,68,29.87,10.0,NNE,4.6,-,N/A,,Clear,30,2012-10-27 03:35:00
11:55 PM,64.4,55.4,73,29.87,10.0,North,3.5,-,N/A,,Clear,360,2012-10-27 03:55:00